Regional Weather Roundup
Issued by NWS

Home | Current Version | Previous Version | Text Only | Print | Product List | Glossary Off
Versions: 1 2 3 4 5 6 7 8 9 10 11 12 13 14 15 16 17 18 19 20 21 22 23 24 25 26 27 28 29 30 31 32 33 34 35 36 37 38 39 40 41 42 43 44 45 46 47 48 49 50

000
ASUS45 KBOU 221310
RWRCO

WEATHER ROUNDUP FOR COLORADO
NATIONAL WEATHER SERVICE DENVER/BOULDER CO
700 AM MDT TUE MAY 22 2018

NOTE: "FAIR" INDICATES FEW OR NO CLOUDS BELOW 12000 FEET WITH NO
SIGNIFICANT WEATHER AND/OR OBSTRUCTIONS TO VISIBILITY.

COZ001>005-013-030-031-221400-
...NORTHWEST COLORADO...

CITY           SKY/WX    TMP DP  RH WIND       PRES   REMARKS
CRAIG          FAIR      42  37  82 SW3       30.00R
HAYDEN         FAIR      47  34  60 SE13      30.02S
MEEKER         FAIR      46  36  68 NE5       30.01R
RANGELY        FAIR      58  32  37 E12       29.93S
RABBIT EARS PA FAIR      41  30  65 S7        30.22S
STEAMBOAT SPGS FAIR      41  35  79 CALM      30.04R
WALDEN         FAIR      39  32  75 SE3       30.13S
$$

COZ006>008-011-221400-
...WEST CENTRAL VALLEYS...

CITY           SKY/WX    TMP DP  RH WIND       PRES   REMARKS
GRAND JUNCTION FAIR      61  34  36 E15       29.92R
MONTROSE       FAIR      48  30  49 S6        30.01R
EAGLE          FAIR      41  30  65 CALM      30.08R
RIFLE          FAIR      48  37  65 CALM      29.98R
DELTA          FAIR      55  32  42 CALM      29.98R
NUCLA          FAIR      50  28  43 E9        30.04R
$$

COZ017>023-064>068-221400-
...SOUTHWEST COLORADO...

CITY           SKY/WX    TMP DP  RH WIND       PRES   REMARKS
DURANGO        FAIR      42  39  89 E5        30.09R
CORTEZ         CLOUDY    60  40  47 VRB7      30.03R
PAGOSA SPRINGS CLOUDY    44  37  74 CALM      30.17R
TELLURIDE      FAIR      52  33  48 SE8       30.17R
WOLF CREEK PAS PTSUNNY   34  32  93 S12G20    30.39R WCI  25
$$

COZ009-010-012-014-032>034-037-058>063-221400-
...CENTRAL COLORADO...

CITY           SKY/WX    TMP DP  RH WIND       PRES   REMARKS
ASPEN          FAIR      41  31  67 CALM      30.08R
BUENA VISTA    FAIR      37  32  83 CALM      30.17R
COPPER MTN     FAIR      45  19  36 CALM      30.31S
BERTHOUD PASS  FAIR      32  23  69 E13       30.34S WCI  22
COTTONWOOD PAS FAIR      45  32  61 W3        30.23R
GUNNISON       FAIR      37  31  78 N8        30.17R
GRANBY         FAIR      36  32  87 E3        30.15R
KREMMLING      FAIR      41  34  75 CALM      30.12S
LEADVILLE      FAIR      31  30  96 CALM      30.21S
MONARCH PASS   FAIR      36  27  69 MISG      30.43R
SALIDA         FAIR      43  37  78 W5        30.24R
SUNLIGHT       FAIR      41  27  56 E5        30.26R
WILKERSON PASS FAIR      41  27  56 S5        30.32R
$$

COZ069>075-221400-
...SAN LUIS VALLEY/SANGRE DE CRISTO MOUNTAINS...

CITY           SKY/WX    TMP DP  RH WIND       PRES   REMARKS
ALAMOSA        FOG       39  39 100 CALM      30.19R VSB 1/4
DEL NORTE      FAIR      38  35  88 W9        30.21R
LA VETA PASS   FAIR      36  34  93 SW31      30.34S
SAGUACHE       NOT AVBL
$$

COZ035-036-038>040-221400-
...NORTHERN COLORADO FRONT RANGE...

CITY           SKY/WX    TMP DP  RH WIND       PRES   REMARKS
DENVER INTL AP PTSUNNY   52  43  71 W6        29.99R
AURORA         PTSUNNY   51  42  70 SW8       30.02R
FRONT RANGE AP FAIR      53  45  74 SW8       30.01R
ERIE MUNI ARPT FAIR      50  46  87 CALM      30.04R
BOULDER MUN AP FAIR      57  43  58 SW5       29.98S
CENTENNIAL     PTSUNNY   54  40  59 W9        30.02R
BROOMFIELD     PTSUNNY   55  45  67 W5        30.01S
FORT COLLINS   FAIR      54  49  83 NE9       29.98S
LONGMONT       FAIR      55  48  75 CALM      30.00R
$$

COZ041-046-047-076>085-087-088-221400-
...PIKES PEAK/PALMER DIVIDE AND SOUTHERN FOOTHILLS...

CITY           SKY/WX    TMP DP  RH WIND       PRES   REMARKS
COLO. SPRINGS  PTSUNNY   54  40  59 E6        30.04R
A. F. ACADEMY  FAIR      46  39  76 N7        30.05R
SCHRIEVER AFB  NOT AVBL
CHEYENNE MTN   FAIR      56  35  44 CALM      30.02R
ELLICOTT         N/A    N/A N/A N/A E5        30.03R
FALCON         FAIR      54  39  57 E5        30.08R
FORT CARSON    FAIR      49  37  65 CALM      30.02R
LIMON          FAIR      47  44  90 CALM      30.02R
MONUMENT HILL  FAIR      45  36  70 SW7       30.09S
CANON CITY     FAIR      57  39  51 W8        30.01R
WALSENBURG     FAIR      57  39  51 SW7       30.04S
TRINIDAD       FAIR      57  47  69 NW6       30.03R
$$

COZ042>045-048>051-090-091-221400-
...NORTHEAST COLORADO...

CITY           SKY/WX    TMP DP  RH WIND       PRES   REMARKS
GREELEY ARPT   FAIR      56  52  86 N5        29.97R
AKRON          FAIR      55  45  68 S9        29.98R
BURLINGTON     FAIR      58  49  72 S9        29.99S
WRAY           FAIR      54  48  82 CALM      29.97R
YUMA           FAIR      50  45  81 SW5       29.97R
STERLING       FAIR      52  52 100 NW3       29.94R FOG
HOLYOKE        FAIR      54  52  94 SW3       29.96S
FORT MORGAN    FAIR      51  48  90 CALM      29.97S
$$

COZ086-089-092>099-221400-
...SOUTHEAST COLORADO...

CITY           SKY/WX    TMP DP  RH WIND       PRES   REMARKS
PUEBLO         FAIR      51  39  63 W5        29.98R
LA JUNTA       FAIR      60  48  64 S7        29.97R
LAMAR          FAIR      60  50  69 MISG      29.96S
SPRINGFIELD      N/A     61  50  67 SW12G20   29.99S
$$



USA.gov is the U.S. government's official web portal to all federal, state and local government web resources and services.